EHI
0 0 0 0 0 0 0 0 0 0 0 0 0 0 0 0 0 0 0 0 0 0 0 0 0 0 0 0 0 0 0 0 0 0 0 0 0 0 0 0 0 0 0
0 0 0 0 0 0 0 0 0 0 0 0 0 0 0 0 0 0 0 0 0 0 0 0 0 0 0 0 0 0 0 0 0 0 0 0 0 0 0 0 0 0 0
0 0 0 0 0 0 0 0 0 0 0 0 0 0 0 0 0 0 0 0 0 0 0 0 0 0 0 0 0 0 0 0 0 0 0 0 0 0 0 0 0 0 0
2 2 1 0 0 0 0 0 0 0 0 0 0 0 0 0 0 0 0 0 0 0 0 1 1 0 0 0 0 0 0 0 0 0 0 0 0 0 0 0 0 0 0
4 4 2 0 0 0 0 0 0 0 0 0 0 0 0 0 0 0 0 0 0 0 0 1 1 0 0 0 0 0 0 0 0 0 0 0 0 0 0 0 0 0 0
7 6 3 0 0 0 0 0 0 0 0 0 0 0 0 0 0 0 0 0 0 0 0 0 0 0 0 0 0 0 0 0 0 0 0 0 0 0 0 0 0 0 0
9 7 4 1 0 0 0 0 0 0 0 0 0 0 0 0 0 0 0 0 0 0 0 0 0 0 0 0 0 0 0 0 0 0 0 0 0 0 0 0 0 0 0
8 7 5 2 0 0 0 0 0 0 0 0 0 0 0 0 0 0 0 0 0 0 0 0 0 0 0 0 0 0 0 0 0 0 0 0 0 0 0 0 0 0 0
7 6 5 3 1 0 0 0 0 0 0 0 0 0 0 0 0 0 0 0 0 0 0 0 0 0 0 0 0 0 0 0 0 0 0 0 0 0 0 0 0 0 0
7 6 4 3 1 0 0 0 0 0 0 0 0 0 0 0 0 0 0 0 0 0 0 0 0 0 0 0 0 0 0 0 0 0 0 1 1 0 0 0 0 0 0
9 7 5 4 2 1 1 1 0 0 0 0 0 0 0 0 0 0 0 0 0 0 0 0 0 0 0 0 0 0 0 0 0 0 0 1 1 1 1 0 0 0 0
9 9 8 6 3 2 3 3 2 1 0 0 0 0 0 0 0 0 0 0 0 0 0 0 0 0 0 0 0 0 0 0 0 0 0 1 1 1 1 0 0 0 0
8 10 10 8 5 4 4 5 5 3 1 1 0 0 0 0 0 0 0 0 0 0 0 0 0 0 0 0 0 0 0 0 0 0 0 0 0 1 1 0 0 0 0
9 9 9 8 6 4 4 5 5 4 3 2 1 1 0 0 0 0 0 0 0 0 0 0 0 0 0 0 0 0 0 0 0 0 0 0 0 0 0 0 0 0 0
12 10 8 7 5 4 4 4 4 4 3 3 3 2 1 0 0 0 0 0 0 0 0 0 0 0 0 0 0 0 0 0 0 0 0 0 0 0 0 0 0 0 0
14 11 8 6 5 5 6 6 4 3 3 3 3 2 1 0 0 0 0 0 0 0 0 0 0 0 0 0 0 0 0 0 0 0 0 0 0 0 0 0 0 0 0
11 10 8 6 6 8 10 10 7 5 3 3 2 2 1 0 0 0 0 0 0 0 0 0 0 0 0 0 0 0 0 0 0 0 0 0 0 0 0 0 0 0 0
6 7 6 6 7 9 11 12 10 7 4 2 1 1 0 0 0 0 0 0 0 0 0 0 0 0 0 0 0 0 0 0 0 0 0 0 0 0 0 0 0 0 0
4 4 4 6 8 10 11 12 11 7 3 2 2 1 0 0 0 1 1 0 0 0 0 0 0 0 0 0 0 0 0 0 0 0 0 0 0 0 0 0 0 0 0
7 6 4 5 8 10 12 12 10 6 4 3 3 2 0 0 1 2 2 2 1 1 0 0 0 0 0 0 0 0 0 0 0 0 0 0 0 0 0 0 0 0 0
10 9 6 6 8 11 12 11 9 7 5 4 3 2 0 0 1 2 3 3 3 2 1 0 0 0 0 0 0 0 0 0 0 0 0 0 0 0 0 0 0 0 0
9 9 8 8 9 11 11 8 7 8 6 5 4 3 2 1 0 1 1 2 2 2 1 0 0 0 0 0 0 0 0 0 0 0 0 0 0 0 0 0 0 0 0
11 11 11 11 12 11 8 4 3 5 6 6 6 5 4 1 0 0 0 0 1 1 1 1 0 0 0 0 0 0 0 0 0 0 0 0 0 0 0 0 0 0 0
17 17 16 14 13 11 6 1 0 2 3 4 5 5 4 2 1 0 0 0 0 0 0 0 0 0 0 0 0 0 0 0 0 0 0 0 0 0 0 0 0 0 0
19 18 17 15 13 10 5 1 0 0 1 1 2 2 3 2 1 0 0 0 0 0 0 0 0 0 0 0 0 0 0 0 0 0 0 0 0 0 0 0 0 0 0
19 17 14 13 12 9 5 1 0 0 0 0 0 1 1 1 0 0 0 0 0 0 0 0 0 0 0 0 0 0 0 0 0 0 0 0 0 0 0 0 0 0 0
Wind_Speed
4 3 2 2 2 1 2 1 1 1 1 2 3 5 6 6 5 4 4 10 9 9 9 9 9 9 8 8 7 7 7 7 7 6 6 7 7 7 7 6 6 6 6
4 4 3 2 2 2 2 2 2 2 2 2 3 5 5 5 5 4 3 6 9 9 9 9 9 8 8 8 7 7 6 6 7 6 6 6 6 7 7 6 6 6 6
5 5 4 3 3 2 2 2 2 1 1 2 3 4 4 5 5 5 4 3 4 7 9 9 8 8 8 8 8 7 7 6 6 6 6 6 6 6 6 6 6 6 6
6 5 4 3 3 3 2 2 2 2 1 1 2 2 3 4 5 5 4 4 3 4 6 9 9 8 8 8 8 8 8 7 7 7 6 6 6 6 6 6 6 5 5
6 4 4 3 3 3 2 3 2 2 2 2 2 2 2 3 4 6 5 5 5 4 3 6 9 9 9 8 8 8 8 8 8 8 7 7 7 7 7 6 6 6 5
6 5 3 3 3 3 2 2 2 2 2 2 1 1 1 2 3 4 6 5 5 6 5 5 4 6 9 8 8 9 9 9 9 9 8 8 8 7 7 7 7 6 6
5 5 4 3 3 3 3 4 2 2 1 1 2 2 2 1 2 3 4 4 5 6 5 5 4 3 4 8 8 9 10 10 10 9 9 9 8 8 7 7 7 7 7
5 5 5 4 4 3 3 3 3 2 1 2 3 2 1 3 2 2 3 4 5 4 5 7 5 5 4 3 5 9 10 10 10 10 10 9 8 8 8 8 8 8 7
6 5 6 5 4 4 4 4 4 4 2 1 2 4 3 3 2 2 3 3 4 4 4 5 7 7 6 5 4 8 10 10 10 11 11 10 9 9 9 9 9 8 8
6 6 5 5 5 4 4 4 4 3 4 2 1 1 3 4 3 1 2 2 4 5 5 6 6 7 6 5 7 9 11 11 11 11 11 11 10 10 10 10 10 10 9
6 6 6 5 5 4 4 4 4 4 3 3 2 2 1 1 2 2 2 2 2 3 4 5 5 5 7 6 6 9 12 12 11 11 11 11 11 11 11 11 11 11 11
4 6 6 5 5 5 5 5 4 5 4 4 3 3 3 2 2 3 3 3 3 3 3 4 5 5 5 6 9 12 13 13 12 12 12 11 11 11 11 12 12 12 12
4 6 6 5 5 5 5 5 4 4 4 4 4 3 3 3 3 3 3 2 2 2 2 2 4 5 6 5 7 12 12 13 13 13 12 12 11 11 11 12 12 12 12
6 6 7 6 6 6 6 5 4 4 4 4 5 4 3 3 3 3 3 3 1 2 2 3 2 4 5 5 7 11 7 12 13 13 13 12 12 12 11 11 11 11 11
6 7 7 7 6 6 6 5 4 4 4 4 4 4 3 3 2 3 3 3 4 2 3 3 2 3 4 4 7 6 6 10 12 13 13 13 13 13 12 12 12 12 11
6 7 7 7 6 6 6 5 4 4 5 5 4 4 4 3 3 2 2 3 3 4 3 3 3 3 3 4 6 5 6 9 12 13 13 14 14 13 13 12 12 12 12
6 7 7 7 7 7 6 6 6 6 6 6 5 5 6 5 3 3 2 2 2 3 3 3 2 2 2 3 3 3 4 4 5 11 12 13 13 13 13 13 13 13 13
6 6 6 7 7 7 7 7 8 7 7 7 6 6 7 5 5 3 3 3 3 3 4 4 2 1 2 3 3 3 3 4 4 8 11 12 13 13 13 13 13 13 13
6 6 6 7 7 7 7 7 7 7 7 8 7 7 7 6 5 4 4 4 3 3 3 3 3 2 2 2 1 2 3 2 4 5 8 10 11 12 12 13 12 12 12
6 6 6 6 6 6 7 7 7 7 7 7 7 7 7 7 7 6 5 5 4 3 3 3 2 2 2 2 1 2 2 2 3 3 3 4 7 9 10 10 10 11 12
6 5 5 5 5 5 6 7 7 7 7 7 7 7 7 8 9 7 5 5 5 4 3 3 3 2 2 1 2 2 3 2 3 2 2 2 2 2 3 6 8 9 10
5 4 5 5 5 6 7 9 7 6 6 6 6 6 6 7 8 9 10 9 8 7 5 4 3 4 4 4 3 2 2 1 2 2 1 2 1 2 3 3 5 8 8
4 4 5 5 5 6 8 9 9 6 5 6 6 5 5 5 7 6 6 7 7 8 9 6 5 6 5 4 3 2 2 3 3 2 1 3 2 3 3 3 6 6 6
4 4 4 5 5 6 7 8 8 6 5 6 6 6 6 5 5 6 5 4 4 5 6 6 5 5 5 4 4 4 4 3 2 2 2 2 2 2 3 2 4 4 5
3 3 3 3 3 3 4 6 6 4 4 4 4 4 5 5 6 7 5 4 3 3 3 4 5 5 4 4 4 2 1 1 2 2 1 2 2 2 2 2 2 3 4
3 3 2 2 2 2 3 4 4 2 2 2 2 2 3 3 3 5 5 5 4 4 2 1 1 2 3 3 4 4 4 3 2 2 2 2 1 0 2 2 2 2 2
Wind_Direction
159 163 169 178 190 191 190 187 188 152 122 120 139 138 139 144 150 147 154 162 160 160 160 159 158 158 159 159 160 160 158 159 157 155 154 154 154 154 155 153 153 152 151
162 164 168 178 190 192 188 175 170 148 128 121 125 136 141 147 153 153 157 167 168 170 172 170 169 169 168 168 169 168 166 165 164 165 167 166 162 163 166 164 160 156 160
163 163 166 177 193 180 160 142 136 118 125 121 123 138 146 157 159 163 165 165 174 182 183 182 179 179 181 181 181 180 177 173 170 170 172 173 171 171 171 171 168 166 166
164 160 167 180 180 160 149 141 133 118 105 112 124 149 146 157 167 173 174 176 181 188 194 193 189 189 191 193 192 189 188 183 182 182 182 182 181 183 184 180 178 178 179
163 159 169 178 163 148 152 163 134 136 142 146 157 156 154 163 171 179 185 191 194 193 193 200 196 196 200 201 199 195 194 193 194 195 195 194 194 193 192 192 192 191 190
165 158 164 169 152 141 140 136 135 130 149 161 152 131 175 181 175 183 191 192 198 201 198 200 196 205 206 205 202 201 201 199 201 202 202 202 203 200 198 198 199 199 199
167 161 163 161 154 154 163 154 138 132 140 122 85 40 351 320 198 196 194 188 198 201 194 198 195 198 209 209 206 206 209 207 207 207 206 205 205 202 201 203 206 206 208
171 172 163 167 167 158 154 158 144 138 167 142 131 112 16 339 311 220 201 197 200 197 198 202 198 201 203 200 212 212 214 214 212 212 211 209 208 207 207 209 211 213 216
181 174 171 168 170 165 172 177 164 154 170 197 159 147 153 215 274 300 238 210 195 194 203 202 205 207 206 203 208 219 219 217 217 218 216 215 214 214 213 215 215 215 216
186 182 175 171 172 170 175 187 173 163 155 180 201 185 172 165 161 259 301 253 214 203 202 205 208 209 208 205 209 212 217 217 217 221 220 218 216 215 217 218 220 220 219
193 191 181 175 174 177 183 188 173 170 167 171 178 177 160 155 150 153 241 277 270 231 211 208 206 206 206 205 208 215 215 216 218 221 221 220 220 219 220 223 226 226 226
195 193 185 182 182 183 186 189 185 180 182 179 178 174 167 171 189 173 198 233 247 255 226 211 209 208 207 206 214 214 214 216 218 219 221 222 222 222 223 227 230 231 233
196 199 191 186 188 190 188 184 185 192 192 189 193 195 193 197 180 171 172 205 241 272 269 237 218 207 210 205 216 217 216 215 218 219 221 223 223 224 225 228 231 234 236
199 194 190 190 191 191 191 186 191 201 199 201 205 199 201 211 195 184 176 166 197 290 289 264 249 216 212 203 216 213 218 218 219 220 222 224 225 226 227 228 229 232 235
200 195 193 194 197 195 192 187 198 205 201 205 210 208 209 216 204 199 182 172 169 200 254 261 259 238 212 204 212 205 211 220 220 222 224 226 227 228 229 229 230 231 233
198 191 196 197 198 198 195 193 199 202 201 213 212 209 216 217 215 205 191 190 180 178 220 249 245 250 218 208 205 201 213 220 222 224 227 229 231 231 231 232 235 236 236
193 194 195 197 200 201 199 198 210 205 208 220 220 214 223 217 213 212 199 189 186 171 205 254 252 262 217 215 208 211 218 218 228 231 232 233 233 233 233 234 237 239 240
194 194 193 197 205 207 203 202 213 214 212 218 221 219 227 221 217 213 200 204 204 195 192 227 254 258 240 225 215 221 229 223 229 236 234 236 237 237 238 239 241 243 244
197 197 195 200 207 207 206 209 212 216 216 218 218 218 223 214 220 217 207 208 214 215 197 201 232 240 252 245 226 250 248 250 243 242 236 239 241 243 243 243 243 243 244
196 200 202 207 211 211 211 211 213 218 221 223 222 219 218 211 215 214 214 213 209 209 205 201 220 236 244 250 179 229 261 257 255 258 253 245 243 246 248 249 246 244 243
199 201 204 209 209 212 218 216 218 221 221 225 227 224 220 215 212 210 212 209 203 206 205 206 217 219 231 219 217 215 228 259 270 256 269 271 257 262 258 254 252 249 245
198 196 204 210 216 226 228 221 218 222 220 221 227 229 228 222 221 219 219 211 199 199 203 206 215 218 228 218 209 204 203 215 281 283 239 277 247 263 262 244 250 248 247
192 198 208 210 222 236 230 227 221 217 218 221 222 222 229 228 220 219 221 223 220 216 204 198 211 222 218 213 198 205 202 201 227 254 203 269 270 265 267 266 257 251 250
194 201 209 216 226 243 238 236 229 225 224 225 224 221 221 228 221 206 204 207 225 231 220 210 210 223 217 205 196 202 207 214 247 262 195 242 270 262 275 273 272 259 258
198 200 199 209 221 251 250 241 228 225 228 229 232 229 219 222 221 199 184 191 216 252 243 207 209 217 218 212 192 163 182 189 260 267 222 211 260 278 282 283 293 300 289
183 179 183 200 209 238 257 245 223 208 211 221 241 246 228 216 213 189 184 183 200 231 228 197 202 246 239 233 207 196 199 202 221 257 244 193 238 261 300 292 296 312 308